When you browse on this site, cookies collect data to enhance your experience and personalize the content and advertising you see.
Visit our Privacy Policy to learn more. By continuing to use the site, you agree to this use of cookies and data.
  • In Deutschland
  • Länderverzeichnis
  • Für 7 Tage
  • Wassertemperatur
  • Satellitenkarten
  • Wetterkarte
  • Widgets
  • user-avatar
    Anmelden

    Stündliche Wetter Itapicuru

    Heute, 13 Dezember, Donnerstag

    Zeit Temperatur Niederschläge Wind Luftdruck Luftfeuchtigkeit
    00:00 +24°C° 0 mm 1 m/S 751 mmHg 92%
    01:00 +24°C° 0.1 mm 2 m/S 751 mmHg 92%
    02:00 +24°C° 0.1 mm 2 m/S 751 mmHg 92%
    03:00 +24°C° 0.1 mm 2 m/S 751 mmHg 92%
    04:00 +24°C° 0.1 mm 2 m/S 751 mmHg 90%
    05:00 +24°C° 0.1 mm 2 m/S 751 mmHg 88%
    06:00 +25°C° 0.1 mm 2 m/S 751 mmHg 87%
    07:00 +27°C° 0.1 mm 3 m/S 751 mmHg 77%
    08:00 +29°C° 0.1 mm 4 m/S 751 mmHg 67%
    09:00 +32°C° 0.1 mm 5 m/S 752 mmHg 57%
    10:00 +32°C° 0.1 mm 5 m/S 751 mmHg 55%
    11:00 +33°C° 0.1 mm 5 m/S 751 mmHg 53%
    12:00 +34°C° 0.1 mm 5 m/S 751 mmHg 51%
    13:00 +34°C° 0.1 mm 5 m/S 751 mmHg 52%
    14:00 +33°C° 0.1 mm 5 m/S 750 mmHg 52%
    15:00 +33°C° 0.1 mm 5 m/S 750 mmHg 53%
    16:00 +32°C° 0 mm 5 m/S 750 mmHg 59%
    17:00 +29°C° 0 mm 4 m/S 750 mmHg 65%
    18:00 +28°C° 0 mm 4 m/S 750 mmHg 71%
    19:00 +27°C° 0 mm 3 m/S 750 mmHg 77%
    20:00 +26°C° 0 mm 3 m/S 751 mmHg 82%
    21:00 +25°C° 0 mm 2 m/S 751 mmHg 87%
    22:00 +25°C° 0 mm 2 m/S 751 mmHg 89%
    23:00 +24°C° 0 mm 2 m/S 751 mmHg 91%

    Morgen, 14 Dezember, Freitag

    Zeit Temperatur Niederschläge Wind Luftdruck Luftfeuchtigkeit
    00:00 +24°C° 0 mm 1 m/S 751 mmHg 93%
    01:00 +24°C° 0 mm 1 m/S 751 mmHg 93%
    02:00 +24°C° 0 mm 1 m/S 750 mmHg 93%
    03:00 +24°C° 0 mm 1 m/S 750 mmHg 94%
    04:00 +24°C° 0 mm 1 m/S 750 mmHg 92%
    05:00 +24°C° 0 mm 1 m/S 750 mmHg 89%
    06:00 +25°C° 0 mm 1 m/S 751 mmHg 87%
    07:00 +27°C° 0 mm 2 m/S 751 mmHg 77%
    08:00 +29°C° 0 mm 3 m/S 752 mmHg 67%
    09:00 +32°C° 0 mm 4 m/S 752 mmHg 57%
    10:00 +33°C° 0 mm 4 m/S 752 mmHg 54%
    11:00 +34°C° 0 mm 4 m/S 751 mmHg 50%
    12:00 +34°C° 0 mm 4 m/S 751 mmHg 47%
    13:00 +34°C° 0 mm 5 m/S 751 mmHg 47%
    14:00 +34°C° 0 mm 5 m/S 750 mmHg 46%
    15:00 +34°C° 0 mm 5 m/S 750 mmHg 46%
    16:00 +33°C° 0 mm 5 m/S 750 mmHg 53%
    17:00 +30°C° 0 mm 4 m/S 750 mmHg 60%
    18:00 +28°C° 0 mm 4 m/S 750 mmHg 68%
    19:00 +27°C° 0 mm 4 m/S 751 mmHg 73%
    20:00 +26°C° 0 mm 3 m/S 752 mmHg 78%
    21:00 +25°C° 0 mm 3 m/S 752 mmHg 84%
    22:00 +25°C° 0 mm 2 m/S 752 mmHg 86%
    23:00 +24°C° 0 mm 2 m/S 752 mmHg 88%

    übermorgen, 15 Dezember, Samstag

    Zeit Temperatur Niederschläge Wind Luftdruck Luftfeuchtigkeit
    00:00 +24°C° 0 mm 2 m/S 752 mmHg 91%
    01:00 +24°C° 0 mm 2 m/S 752 mmHg 91%
    02:00 +24°C° 0 mm 1 m/S 751 mmHg 92%
    03:00 +24°C° 0 mm 1 m/S 751 mmHg 92%
    04:00 +24°C° 0.1 mm 1 m/S 751 mmHg 91%
    05:00 +24°C° 0.1 mm 2 m/S 752 mmHg 89%
    06:00 +25°C° 0.1 mm 2 m/S 752 mmHg 88%
    07:00 +27°C° 0 mm 2 m/S 752 mmHg 78%
    08:00 +28°C° 0 mm 3 m/S 753 mmHg 68%
    09:00 +30°C° 0 mm 4 m/S 753 mmHg 58%
    10:00 +32°C° 0 mm 4 m/S 753 mmHg 54%
    11:00 +33°C° 0 mm 4 m/S 752 mmHg 51%
    12:00 +33°C° 0 mm 5 m/S 752 mmHg 48%
    13:00 +33°C° 0.1 mm 5 m/S 751 mmHg 50%
    14:00 +33°C° 0.1 mm 5 m/S 750 mmHg 51%
    15:00 +33°C° 0.1 mm 5 m/S 750 mmHg 52%
    16:00 +32°C° 0 mm 4 m/S 750 mmHg 59%
    17:00 +29°C° 0 mm 4 m/S 750 mmHg 66%
    18:00 +28°C° 0 mm 4 m/S 751 mmHg 72%
    19:00 +27°C° 0 mm 3 m/S 751 mmHg 78%
    20:00 +26°C° 0 mm 3 m/S 752 mmHg 83%
    21:00 +25°C° 0 mm 2 m/S 752 mmHg 88%
    22:00 +25°C° 0.1 mm 2 m/S 752 mmHg 90%
    23:00 +24°C° 0.1 mm 2 m/S 752 mmHg 92%

    16 Dezember, Sonntag

    Zeit Temperatur Niederschläge Wind Luftdruck Luftfeuchtigkeit
    00:00 +24°C° 0.1 mm 1 m/S 752 mmHg 94%
    01:00 +24°C° 0.2 mm 1 m/S 751 mmHg 95%
    02:00 +24°C° 0.2 mm 2 m/S 751 mmHg 95%
    03:00 +24°C° 0.2 mm 2 m/S 751 mmHg 95%
    04:00 +24°C° 0 mm 2 m/S 751 mmHg 94%
    05:00 +24°C° 0 mm 2 m/S 752 mmHg 93%
    06:00 +24°C° 0 mm 3 m/S 752 mmHg 91%
    07:00 +26°C° 0.1 mm 3 m/S 752 mmHg 81%
    08:00 +28°C° 0.1 mm 4 m/S 753 mmHg 71%
    09:00 +30°C° 0.1 mm 4 m/S 753 mmHg 60%
    10:00 +32°C° 0.1 mm 4 m/S 753 mmHg 58%
    11:00 +32°C° 0.1 mm 4 m/S 752 mmHg 55%
    12:00 +33°C° 0.1 mm 4 m/S 752 mmHg 52%
    13:00 +33°C° 0 mm 4 m/S 751 mmHg 52%
    14:00 +33°C° 0 mm 5 m/S 751 mmHg 51%
    15:00 +34°C° 0 mm 5 m/S 750 mmHg 51%
    16:00 +32°C° 0 mm 5 m/S 750 mmHg 57%
    17:00 +29°C° 0 mm 4 m/S 750 mmHg 63%
    18:00 +28°C° 0 mm 4 m/S 751 mmHg 69%
    19:00 +27°C° 0 mm 3 m/S 751 mmHg 75%
    20:00 +26°C° 0 mm 3 m/S 751 mmHg 80%
    21:00 +25°C° 0 mm 3 m/S 752 mmHg 85%
    22:00 +24°C° 0 mm 2 m/S 751 mmHg 87%
    23:00 +24°C° 0 mm 2 m/S 751 mmHg 90%

    17 Dezember, Montag

    Zeit Temperatur Niederschläge Wind Luftdruck Luftfeuchtigkeit
    00:00 +23°C° 0 mm 1 m/S 751 mmHg 92%
    01:00 +23°C° 0 mm 1 m/S 751 mmHg 93%
    02:00 +23°C° 0 mm 1 m/S 750 mmHg 94%
    03:00 +23°C° 0 mm 1 m/S 750 mmHg 95%
    04:00 +23°C° 0 mm 1 m/S 751 mmHg 93%
    05:00 +24°C° 0 mm 1 m/S 751 mmHg 92%
    06:00 +25°C° 0 mm 1 m/S 752 mmHg 90%
    07:00 +26°C° 0.1 mm 2 m/S 752 mmHg 81%
    08:00 +28°C° 0.1 mm 3 m/S 752 mmHg 72%
    09:00 +30°C° 0.1 mm 3 m/S 752 mmHg 63%
    10:00 +32°C° 0.1 mm 4 m/S 752 mmHg 59%
    11:00 +33°C° 0.1 mm 4 m/S 752 mmHg 56%
    12:00 +33°C° 0.1 mm 4 m/S 751 mmHg 53%
    13:00 +33°C° 0.1 mm 5 m/S 751 mmHg 53%
    14:00 +33°C° 0.1 mm 5 m/S 750 mmHg 53%
    15:00 +33°C° 0.1 mm 5 m/S 750 mmHg 53%
    16:00 +32°C° 0 mm 5 m/S 750 mmHg 59%
    17:00 +30°C° 0 mm 4 m/S 750 mmHg 64%
    18:00 +28°C° 0 mm 4 m/S 751 mmHg 70%
    19:00 +27°C° 0 mm 3 m/S 751 mmHg 75%
    20:00 +26°C° 0 mm 3 m/S 751 mmHg 81%
    21:00 +26°C° 0 mm 2 m/S 752 mmHg 86%
    22:00 +25°C° 0 mm 2 m/S 751 mmHg 89%
    23:00 +25°C° 0 mm 2 m/S 751 mmHg 91%

    18 Dezember, Dienstag

    Zeit Temperatur Niederschläge Wind Luftdruck Luftfeuchtigkeit
    00:00 +24°C° 0 mm 2 m/S 751 mmHg 94%
    01:00 +24°C° 0 mm 1 m/S 751 mmHg 95%
    02:00 +24°C° 0 mm 1 m/S 750 mmHg 95%
    03:00 +24°C° 0 mm 1 m/S 750 mmHg 96%
    04:00 +24°C° 0 mm 1 m/S 750 mmHg 94%
    05:00 +25°C° 0 mm 1 m/S 751 mmHg 93%
    06:00 +25°C° 0 mm 1 m/S 751 mmHg 91%
    07:00 +27°C° 0.2 mm 1 m/S 752 mmHg 83%
    08:00 +28°C° 0.2 mm 2 m/S 752 mmHg 75%
    09:00 +30°C° 0.2 mm 2 m/S 752 mmHg 67%
    10:00 +31°C° 0.8 mm 3 m/S 752 mmHg 65%
    11:00 +32°C° 0.8 mm 4 m/S 751 mmHg 63%
    12:00 +33°C° 0.8 mm 4 m/S 751 mmHg 61%
    13:00 +33°C° 1.7 mm 4 m/S 750 mmHg 63%
    14:00 +32°C° 1.7 mm 5 m/S 750 mmHg 65%
    15:00 +32°C° 1.7 mm 5 m/S 750 mmHg 67%
    16:00 +30°C° 0.8 mm 4 m/S 750 mmHg 73%
    17:00 +28°C° 0.8 mm 4 m/S 750 mmHg 78%
    18:00 +27°C° 0.8 mm 3 m/S 750 mmHg 83%
    19:00 +27°C° 0 mm 3 m/S 751 mmHg 86%
    20:00 +26°C° 0 mm 2 m/S 751 mmHg 90%
    21:00 +26°C° 0 mm 2 m/S 751 mmHg 93%
    22:00 +25°C° 0 mm 2 m/S 751 mmHg 94%
    23:00 +25°C° 0 mm 2 m/S 750 mmHg 95%
    Mehr zeigen